Date String (YYYY-MM-DD hh:mm:ss) UTC,Instrument flags,Ambient pressure (hPa),Sample flow (lpm),Bypass flow (lpm),Sample temperature (°C),Ambient temperature (°C),ASC tube jacket temperature (°C),LED temperature (°C),Box temperature (°C),Sample RH (%),Span deviation,Mass concentration (μg/m³),Mass concentration (μg/m³),Mass concentration (μg/m³)
DateTimeUTC,F1_M11,P_M11,Q1_M11,Q2_M11,T1_M11,T2_M11,T3_M11,T4_M11,T5_M11,U1_M11,ZSPAN_M11,X2_M11,X0_M11,X1_M11
2022-05-22 05:00:00,,0833.1,5.00,0.00,24.0,23.1,00.0,33.1,25.8,19.0,0000.0,0000.03,0000.15,0000.01
2022-05-22 05:01:00,,0833.1,5.01,0.00,24.0,23.1,00.0,33.1,25.8,18.9,0000.0,0000.03,0000.15,0000.01
2022-05-22 05:02:00,,0833.1,5.00,0.00,24.0,23.0,00.0,33.1,25.7,18.8,0000.0,0000.03,0000.14,0000.00
2022-05-22 05:03:00,,0833.1,5.01,0.00,24.0,23.0,00.0,33.1,25.7,19.0,0000.0,0000.03,0000.14,0000.00
2022-05-22 05:04:00,,0833.1,5.00,0.00,24.0,22.9,00.0,33.1,25.7,18.6,0000.0,0000.03,0000.14,0000.00
2022-05-22 05:05:00,,0833.1,5.01,0.00,23.9,22.9,00.0,33.1,25.7,18.5,0000.0,0000.02,0000.06,0000.00
2022-05-22 05:06:00,,0833.1,5.00,0.00,24.0,22.9,00.0,33.1,25.7,18.2,0000.0,0000.01,0000.04,0000.00
2022-05-22 05:07:00,,0833.1,5.01,0.00,24.0,23.0,00.0,33.0,25.8,17.7,0000.0,0000.01,0000.05,0000.00
2022-05-22 05:08:00,,0833.1,5.01,0.00,24.0,23.0,00.0,33.0,25.9,17.8,0000.0,0000.01,0000.05,0000.00
2022-05-22 05:09:00,,0833.1,4.99,0.00,24.0,23.0,00.0,33.0,25.9,18.6,0000.0,0000.01,0001.22,0000.00
2022-05-22 05:10:00,,0833.2,5.01,0.00,24.0,23.1,00.0,33.0,25.9,19.8,0000.0,0000.01,0001.86,0000.00
2022-05-22 05:11:00,,0833.1,5.00,0.00,24.0,23.1,00.0,33.0,26.0,20.1,0000.0,0000.02,0001.87,0000.00
2022-05-22 05:12:00,,0833.1,5.00,0.00,24.1,23.1,00.0,33.0,26.0,20.3,0000.0,0000.02,0001.87,0000.00
2022-05-22 05:13:00,,0833.1,5.02,0.00,24.1,23.2,00.0,33.0,26.0,20.1,0000.0,0000.02,0001.87,0000.00
2022-05-22 05:14:00,,0833.1,4.99,0.00,24.1,23.2,00.0,33.0,26.0,20.4,0000.0,0000.02,0001.87,0000.00
2022-05-22 05:15:00,,0833.0,4.99,0.00,24.1,23.2,00.0,33.0,26.0,20.0,0000.0,0000.02,0001.87,0000.00
2022-05-22 05:16:00,,0833.1,5.01,0.00,24.1,23.3,00.0,33.0,26.1,19.9,0000.0,0000.02,0001.88,0000.00
2022-05-22 05:17:00,,0833.1,5.00,0.00,24.1,23.3,00.0,33.0,26.1,19.8,0000.0,0000.02,0001.86,0000.00
2022-05-22 05:18:00,,0833.1,5.00,0.00,24.2,23.3,00.0,33.1,26.1,19.9,0000.0,0000.02,0001.86,0000.00
2022-05-22 05:19:00,,0833.1,5.00,0.00,24.2,23.3,00.0,33.1,26.1,19.8,0000.0,0000.03,0001.96,0000.00
2022-05-22 05:20:00,,0833.1,4.99,0.00,24.2,23.3,00.0,33.1,26.1,19.9,0000.0,0000.03,0000.51,0000.00
2022-05-22 05:21:00,,0833.1,5.01,0.00,24.2,23.3,00.0,33.1,26.1,19.8,0000.0,0000.03,0000.14,0000.00
2022-05-22 05:22:00,,0833.1,5.00,0.00,24.2,23.4,00.0,33.1,26.2,18.7,0000.0,0000.03,0000.14,0000.00
2022-05-22 05:23:00,,0833.0,4.99,0.00,24.2,23.4,00.0,33.1,26.2,18.5,0000.0,0000.03,0000.14,0000.00
2022-05-22 05:24:00,,0833.0,4.99,0.00,24.2,23.4,00.0,33.1,26.2,18.9,0000.0,0000.03,0000.14,0000.00
2022-05-22 05:25:00,,0833.1,5.01,0.00,24.3,23.4,00.0,33.1,26.2,19.2,0000.0,0000.03,0000.14,0000.00
2022-05-22 05:26:00,,0833.0,5.00,0.00,24.3,23.4,00.0,33.1,26.2,20.1,0000.0,0000.03,0000.14,0000.00
2022-05-22 05:27:00,,0833.0,5.01,0.00,24.3,23.4,00.0,33.1,26.2,20.5,0000.0,0000.02,0000.12,0000.00
2022-05-22 05:28:00,,0833.0,4.99,0.00,24.3,23.5,00.0,33.2,26.2,20.5,0000.0,0000.02,0000.11,0000.00
2022-05-22 05:29:00,,0833.0,5.00,0.00,24.3,23.5,00.0,33.2,26.3,20.5,0000.0,0000.01,0000.09,0000.00
2022-05-22 05:30:00,,0833.0,4.99,0.00,24.3,23.5,00.0,33.2,26.3,21.0,0000.0,0000.00,0000.00,0000.00
2022-05-22 05:31:00,,0833.0,5.01,0.00,24.3,23.5,00.0,33.2,26.3,21.1,0000.0,0000.01,0000.03,0000.00
2022-05-22 05:32:00,,0833.0,5.00,0.00,24.3,23.5,00.0,33.2,26.3,20.9,0000.0,0000.02,0000.05,0000.00
2022-05-22 05:33:00,,0832.9,5.00,0.00,24.3,23.5,00.0,33.2,26.3,20.9,0000.0,0000.02,0000.05,0000.00
2022-05-22 05:34:00,,0832.8,5.01,0.00,24.3,23.5,00.0,33.2,26.3,21.3,0000.0,0000.02,0000.05,0000.00
2022-05-22 05:35:00,,0832.9,5.01,0.00,24.4,23.5,00.0,33.2,26.3,21.0,0000.0,0000.02,0000.05,0000.00
2022-05-22 05:36:00,,0833.0,4.99,0.00,24.4,23.5,00.0,33.2,26.3,20.7,0000.0,0000.02,0000.05,0000.00
2022-05-22 05:37:00,,0833.0,5.01,0.00,24.4,23.5,00.0,33.2,26.3,20.5,0000.0,0000.02,0000.05,0000.00
2022-05-22 05:38:00,,0833.1,4.99,0.00,24.4,23.6,00.0,33.2,26.3,20.2,0000.0,0000.02,0000.06,0000.01
2022-05-22 05:39:00,,0833.1,5.01,0.00,24.4,23.6,00.0,33.3,26.4,20.4,0000.0,0000.02,0000.06,0000.01
2022-05-22 05:40:00,,0833.1,5.00,0.00,24.4,23.6,00.0,33.3,26.3,20.6,0000.0,0000.02,0000.06,0000.01
2022-05-22 05:41:00,,0833.1,4.99,0.00,24.4,23.6,00.0,33.3,26.3,20.6,0000.0,0000.02,0000.05,0000.00
2022-05-22 05:42:00,,0833.1,5.01,0.00,24.4,23.6,00.0,33.3,26.4,20.6,0000.0,0000.02,0000.05,0000.00
2022-05-22 05:43:00,,0833.1,4.99,0.00,24.4,23.6,00.0,33.3,26.4,20.6,0000.0,0000.02,0000.05,0000.01
2022-05-22 05:44:00,,0833.1,5.00,0.00,24.4,23.6,00.0,33.3,26.4,20.6,0000.0,0000.02,0000.05,0000.01
2022-05-22 05:45:00,,0833.1,5.01,0.00,24.4,23.5,00.0,33.3,26.4,20.6,0000.0,0000.02,0000.05,0000.01
2022-05-22 05:46:00,,0833.0,4.99,0.00,24.4,23.5,00.0,33.3,26.4,20.6,0000.0,0000.02,0000.05,0000.01
2022-05-22 05:47:00,,0833.0,5.01,0.00,24.5,23.5,00.0,33.3,26.3,20.4,0000.0,0000.02,0000.05,0000.00
2022-05-22 05:48:00,,0833.1,5.00,0.00,24.5,23.5,00.0,33.3,26.3,20.2,0000.0,0000.02,0000.04,0000.01
2022-05-22 05:49:00,,0833.1,4.99,0.00,24.5,23.5,00.0,33.3,26.3,20.4,0000.0,0000.02,0000.04,0000.01
2022-05-22 05:50:00,,0833.1,5.01,0.00,24.5,23.5,00.0,33.3,26.4,20.6,0000.0,0000.02,0000.04,0000.01
2022-05-22 05:51:00,,0833.1,4.99,0.00,24.5,23.5,00.0,33.3,26.4,20.9,0000.0,0000.02,0000.04,0000.01
2022-05-22 05:52:00,,0833.2,5.00,0.00,24.5,23.5,00.0,33.3,26.3,20.9,0000.0,0000.02,0000.04,0000.01
2022-05-22 05:53:00,,0833.1,5.00,0.00,24.5,23.5,00.0,33.3,26.3,20.9,0000.0,0000.01,0000.01,0000.00
2022-05-22 05:54:00,,0833.1,4.98,0.00,24.5,23.5,00.0,33.3,26.4,21.0,0000.0,0000.01,0000.01,0000.00
2022-05-22 05:55:00,,0833.0,5.00,0.00,24.5,23.5,00.0,33.3,26.4,20.9,0000.0,0000.01,0000.01,0000.00
2022-05-22 05:56:00,,0833.1,5.00,0.00,24.5,23.5,00.0,33.4,26.4,20.7,0000.0,0000.01,0000.01,0000.00
2022-05-22 05:57:00,,0833.0,5.00,0.00,24.5,23.5,00.0,33.4,26.4,20.5,0000.0,0000.01,0000.01,0000.01
2022-05-22 05:58:00,,0833.0,5.00,0.00,24.5,23.5,00.0,33.4,26.4,20.4,0000.0,0000.01,0000.02,0000.01
2022-05-22 05:59:00,,0833.0,5.00,0.00,24.5,23.5,00.0,33.4,26.4,20.0,0000.0,0000.01,0000.01,0000.00
